Date String (YYYY-MM-DD hh:mm:ss) UTC,Instrument flags,Ambient pressure (hPa),Sample flow (lpm),Bypass flow (lpm),Sample temperature (°C),Ambient temperature (°C),ASC tube jacket temperature (°C),LED temperature (°C),Box temperature (°C),Sample RH (%),Span deviation,Mass concentration (μg/m³),Mass concentration (μg/m³),Mass concentration (μg/m³)
DateTimeUTC,F1_M11,P_M11,Q1_M11,Q2_M11,T1_M11,T2_M11,T3_M11,T4_M11,T5_M11,U1_M11,ZSPAN_M11,X0_M11,X2_M11,X1_M11
2021-11-17 07:00:00,,0825.7,5.00,0.00,25.9,24.8,00.0,35.3,27.6,07.9,0000.0,0028.74,0005.39,0001.26
2021-11-17 07:01:00,,0825.7,5.00,0.00,25.9,24.8,00.0,35.3,27.6,08.0,0000.0,0028.98,0005.44,0001.27
2021-11-17 07:02:00,,0825.9,5.01,0.00,25.9,24.8,00.0,35.2,27.6,07.9,0000.0,0029.57,0005.61,0001.29
2021-11-17 07:03:00,,0826.0,5.00,0.00,25.9,24.8,00.0,35.2,27.5,08.0,0000.0,0030.36,0005.72,0001.30
2021-11-17 07:04:00,,0826.0,4.99,0.00,25.9,24.8,00.0,35.2,27.5,08.0,0000.0,0030.58,0005.88,0001.33
2021-11-17 07:05:00,,0826.2,5.00,0.00,25.8,24.8,00.0,35.2,27.5,08.0,0000.0,0030.57,0006.06,0001.36
2021-11-17 07:06:00,,0826.2,4.99,0.00,25.8,24.7,00.0,35.1,27.5,08.0,0000.0,0031.16,0006.27,0001.39
2021-11-17 07:07:00,,0826.2,5.00,0.00,25.8,24.8,00.0,35.1,27.5,08.0,0000.0,0030.77,0006.23,0001.40
2021-11-17 07:08:00,,0826.2,4.99,0.00,25.8,24.8,00.0,35.1,27.5,08.0,0000.0,0031.46,0006.30,0001.43
2021-11-17 07:09:00,,0826.3,4.99,0.00,25.8,24.8,00.0,35.1,27.5,08.1,0000.0,0032.40,0006.30,0001.44
2021-11-17 07:10:00,,0826.4,5.00,0.00,25.8,24.8,00.0,35.1,27.5,08.1,0000.0,0034.33,0006.29,0001.43
2021-11-17 07:11:00,,0826.5,5.01,0.00,25.8,24.8,00.0,35.0,27.5,08.2,0000.0,0034.11,0006.27,0001.42
2021-11-17 07:12:00,,0826.5,5.00,0.00,25.8,24.8,00.0,35.0,27.5,08.2,0000.0,0034.34,0006.26,0001.41
2021-11-17 07:13:00,,0826.6,5.01,0.00,25.8,24.8,00.0,35.0,27.5,08.3,0000.0,0035.80,0006.17,0001.41
2021-11-17 07:14:00,,0826.6,5.00,0.00,25.7,24.8,00.0,35.0,27.4,08.2,0000.0,0036.35,0006.10,0001.40
2021-11-17 07:15:00,,0826.6,5.00,0.00,25.7,24.8,00.0,35.0,27.4,08.2,0000.0,0035.70,0005.94,0001.40
2021-11-17 07:16:00,,0826.6,5.01,0.00,25.7,24.8,00.0,35.0,27.4,08.2,0000.0,0035.87,0005.84,0001.40
2021-11-17 07:17:00,,0826.7,5.00,0.00,25.7,24.8,00.0,34.9,27.4,08.2,0000.0,0037.42,0005.81,0001.39
2021-11-17 07:18:00,,0826.7,5.01,0.00,25.7,24.9,00.0,34.9,27.4,08.2,0000.0,0037.63,0005.89,0001.39
2021-11-17 07:19:00,,0826.7,4.98,0.00,25.7,24.8,00.0,34.9,27.4,08.1,0000.0,0037.34,0005.91,0001.39
2021-11-17 07:20:00,,0826.6,5.00,0.00,25.7,24.8,00.0,34.9,27.3,08.1,0000.0,0036.75,0005.85,0001.39
2021-11-17 07:21:00,,0826.6,5.00,0.00,25.6,24.7,00.0,34.9,27.3,08.0,0000.0,0036.52,0005.85,0001.38
2021-11-17 07:22:00,,0826.6,5.00,0.00,25.6,24.7,00.0,34.9,27.3,08.0,0000.0,0037.19,0005.85,0001.37
2021-11-17 07:23:00,,0826.7,5.00,0.00,25.6,24.7,00.0,34.8,27.2,08.0,0000.0,0038.59,0005.80,0001.36
2021-11-17 07:24:00,,0826.6,5.01,0.00,25.6,24.7,00.0,34.8,27.2,08.0,0000.0,0037.57,0005.81,0001.37
2021-11-17 07:25:00,,0826.7,4.98,0.00,25.5,24.6,00.0,34.8,27.2,08.0,0000.0,0036.80,0005.81,0001.37
2021-11-17 07:26:00,,0826.7,5.01,0.00,25.5,24.6,00.0,34.8,27.2,08.0,0000.0,0036.52,0005.80,0001.35
2021-11-17 07:27:00,,0826.9,4.99,0.00,25.5,24.6,00.0,34.7,27.2,07.9,0000.0,0035.49,0005.84,0001.33
2021-11-17 07:28:00,,0826.8,5.00,0.00,25.5,24.6,00.0,34.7,27.2,07.9,0000.0,0035.11,0005.76,0001.32
2021-11-17 07:29:00,,0827.1,5.01,0.00,25.5,24.6,00.0,34.7,27.1,07.8,0000.0,0034.55,0005.75,0001.32
2021-11-17 07:30:00,,0826.9,5.00,0.00,25.4,24.5,00.0,34.7,27.1,07.8,0000.0,0033.12,0005.70,0001.30
2021-11-17 07:31:00,,0826.9,5.00,0.00,25.4,24.5,00.0,34.7,27.1,07.8,0000.0,0033.42,0005.71,0001.31
2021-11-17 07:32:00,,0827.1,5.00,0.00,25.4,24.5,00.0,34.7,27.1,07.8,0000.0,0032.89,0005.83,0001.32
2021-11-17 07:33:00,,0826.9,5.00,0.00,25.4,24.5,00.0,34.7,27.2,07.7,0000.0,0032.27,0005.89,0001.33
2021-11-17 07:34:00,,0826.9,5.02,0.00,25.4,24.5,00.0,34.6,27.1,07.6,0000.0,0031.19,0006.02,0001.34
2021-11-17 07:35:00,,0826.9,4.99,0.00,25.4,24.5,00.0,34.6,27.2,07.7,0000.0,0030.92,0006.14,0001.36
2021-11-17 07:36:00,,0826.9,5.01,0.00,25.4,24.5,00.0,34.6,27.2,07.7,0000.0,0030.72,0006.14,0001.35
2021-11-17 07:37:00,,0826.8,5.00,0.00,25.4,24.5,00.0,34.6,27.1,07.6,0000.0,0031.34,0006.20,0001.37
2021-11-17 07:38:00,,0827.0,5.00,0.00,25.4,24.5,00.0,34.6,27.1,07.6,0000.0,0031.48,0006.27,0001.38
2021-11-17 07:39:00,,0826.8,4.99,0.00,25.4,24.5,00.0,34.6,27.1,07.6,0000.0,0029.96,0006.38,0001.37
2021-11-17 07:40:00,,0826.7,5.00,0.00,25.3,24.4,00.0,34.5,27.1,07.6,0000.0,0028.59,0006.47,0001.38
2021-11-17 07:41:00,,0826.7,5.01,0.00,25.3,24.4,00.0,34.5,27.0,07.6,0000.0,0029.63,0006.51,0001.38
2021-11-17 07:42:00,,0826.7,5.00,0.00,25.3,24.5,00.0,34.5,27.1,07.6,0000.0,0030.28,0006.61,0001.37
2021-11-17 07:43:00,,0826.6,4.99,0.00,25.3,24.4,00.0,34.5,27.0,07.6,0000.0,0031.26,0006.61,0001.36
2021-11-17 07:44:00,,0826.5,5.00,0.00,25.3,24.4,00.0,34.5,27.0,07.6,0000.0,0031.05,0006.56,0001.35
2021-11-17 07:45:00,,0826.6,5.01,0.00,25.3,24.4,00.0,34.5,27.0,07.6,0000.0,0031.29,0006.57,0001.35
2021-11-17 07:46:00,,0826.6,5.00,0.00,25.3,24.3,00.0,34.5,27.0,07.7,0000.0,0032.14,0006.53,0001.34
2021-11-17 07:47:00,,0826.7,4.99,0.00,25.2,24.3,00.0,34.5,26.9,07.8,0000.0,0032.39,0006.56,0001.35
2021-11-17 07:48:00,,0826.7,5.00,0.00,25.2,24.3,00.0,34.4,26.9,07.8,0000.0,0032.74,0006.62,0001.35
2021-11-17 07:49:00,,0826.7,5.01,0.00,25.2,24.3,00.0,34.4,26.9,07.8,0000.0,0034.00,0006.60,0001.35
2021-11-17 07:50:00,,0826.7,4.99,0.00,25.2,24.3,00.0,34.4,26.9,07.8,0000.0,0035.67,0006.59,0001.37
2021-11-17 07:51:00,,0826.8,5.01,0.00,25.2,24.3,00.0,34.4,26.9,08.0,0000.0,0037.04,0006.59,0001.38
2021-11-17 07:52:00,,0826.9,5.01,0.00,25.2,24.3,00.0,34.4,26.9,08.1,0000.0,0037.58,0006.46,0001.37
2021-11-17 07:53:00,,0826.9,4.99,0.00,25.2,24.3,00.0,34.4,26.9,08.3,0000.0,0036.24,0006.41,0001.37
2021-11-17 07:54:00,,0827.0,5.01,0.00,25.2,24.3,00.0,34.4,26.9,08.2,0000.0,0035.65,0006.37,0001.37
2021-11-17 07:55:00,,0827.5,5.00,0.00,25.2,24.4,00.0,34.4,26.9,08.1,0000.0,0036.27,0006.38,0001.36
2021-11-17 07:56:00,,0827.4,5.01,0.00,25.2,24.4,00.0,34.3,26.9,08.1,0000.0,0036.38,0006.34,0001.37
2021-11-17 07:57:00,,0827.5,5.00,0.00,25.2,24.4,00.0,34.3,27.0,08.2,0000.0,0036.28,0006.34,0001.35
2021-11-17 07:58:00,,0827.2,4.99,0.00,25.2,24.4,00.0,34.3,27.0,08.2,0000.0,0036.54,0006.35,0001.36
2021-11-17 07:59:00,,0827.1,5.01,0.00,25.2,24.5,00.0,34.3,27.0,08.1,0000.0,0036.16,0006.37,0001.37
